AAY139 KIAH-KBUR

Flight info

Callsign AAY139
Flight time N/A
Altitude 32000
Route BNDTO6 CRGER ELP J2 GBN PHRED THRNE4
Aircraft A320/M-SDE3FGHIRWY/LB1

Departure

Time 2026-05-05 21:02
Airport George Bush Intercontinental Airport (KIAH)

Arrival

Time N/A
Airport Hollywood Burbank/Bob Hope Airport (KBUR)
Time Latitude Longitude Altitude Speed Heading
2026-05-05 20:36 29.98817 -95.34892 107 ft 0 kts 270°
2026-05-05 20:51 29.98817 -95.34891 107 ft 1 kts 270°
2026-05-05 20:52 29.98817 -95.34874 106 ft 3 kts 272°
2026-05-05 20:52 29.98815 -95.34851 105 ft 3 kts 280°
2026-05-05 20:52 29.98811 -95.34829 107 ft 3 kts 298°
2026-05-05 20:52 29.98800 -95.34813 106 ft 2 kts 344°
2026-05-05 20:53 29.98793 -95.34811 106 ft 0 kts 360°
2026-05-05 20:56 29.98794 -95.34811 106 ft 1 kts 360°
2026-05-05 20:56 29.98840 -95.34811 107 ft 9 kts 360°
2026-05-05 20:56 29.98912 -95.34811 107 ft 13 kts 360°
2026-05-05 20:57 29.99000 -95.34811 107 ft 12 kts
2026-05-05 20:57 29.99073 -95.34830 107 ft 10 kts 315°
2026-05-05 20:57 29.99087 -95.34922 107 ft 14 kts 272°
2026-05-05 20:57 29.99090 -95.35041 107 ft 16 kts 270°
2026-05-05 20:58 29.99090 -95.35199 107 ft 18 kts 270°
2026-05-05 20:58 29.99090 -95.35330 107 ft 19 kts 270°
2026-05-05 20:58 29.99084 -95.35480 107 ft 18 kts 261°
2026-05-05 20:58 29.99085 -95.35625 107 ft 18 kts 275°
2026-05-05 20:59 29.99095 -95.35768 107 ft 18 kts 274°
2026-05-05 20:59 29.99090 -95.35915 107 ft 19 kts 257°
2026-05-05 20:59 29.99043 -95.36024 107 ft 14 kts 225°
2026-05-05 20:59 29.98956 -95.36012 106 ft 14 kts 152°
2026-05-05 21:00 29.98864 -95.35968 108 ft 14 kts 170°
2026-05-05 21:00 29.98785 -95.35928 107 ft 10 kts 152°
2026-05-05 21:00 29.98744 -95.35906 108 ft 7 kts 165°
2026-05-05 21:00 29.98691 -95.35948 108 ft 13 kts 242°
2026-05-05 21:01 29.98632 -95.36030 108 ft 14 kts 195°
2026-05-05 21:01 29.98541 -95.35994 109 ft 15 kts 152°
2026-05-05 21:01 29.98355 -95.35880 107 ft 61 kts 152°
2026-05-05 21:01 29.97787 -95.35532 105 ft 121 kts 152°
2026-05-05 21:02 29.96904 -95.34977 203 ft 159 kts 153°
2026-05-05 21:02 29.95902 -95.34337 707 ft 169 kts 154°
2026-05-05 21:02 29.94805 -95.33904 1368 ft 167 kts 187°
2026-05-05 21:02 29.93790 -95.34532 1911 ft 182 kts 229°
2026-05-05 21:03 29.93383 -95.36033 2148 ft 219 kts 265°
2026-05-05 21:03 29.93569 -95.37929 2504 ft 250 kts 276°
2026-05-05 21:03 29.93960 -95.39956 3140 ft 264 kts 278°
2026-05-05 21:03 29.94383 -95.42024 4029 ft 266 kts 278°
2026-05-05 21:04 29.94775 -95.44127 4709 ft 271 kts 277°
2026-05-05 21:04 29.95125 -95.46277 4914 ft 274 kts 276°
2026-05-05 21:04 29.95435 -95.48438 4979 ft 272 kts 275°
2026-05-05 21:04 29.95720 -95.50584 5020 ft 271 kts 275°
2026-05-05 21:05 29.96031 -95.52718 5320 ft 270 kts 276°
2026-05-05 21:05 29.96360 -95.54847 5828 ft 270 kts 276°
2026-05-05 21:05 29.96695 -95.56978 6430 ft 270 kts 277°
2026-05-05 21:05 29.97030 -95.59119 7011 ft 272 kts 277°
2026-05-05 21:06 29.97363 -95.61268 7638 ft 272 kts 277°
2026-05-05 21:06 29.97692 -95.63423 8362 ft 274 kts 277°
2026-05-05 21:06 29.98083 -95.65579 9175 ft 275 kts 280°
2026-05-05 21:06 29.98544 -95.67726 9896 ft 279 kts 281°
2026-05-05 21:07 29.99046 -95.69937 10319 ft 294 kts 282°
2026-05-05 21:07 29.99584 -95.72305 10476 ft 316 kts 282°
2026-05-05 21:07 30.00157 -95.74846 10613 ft 338 kts 282°
2026-05-05 21:07 30.00752 -95.77512 11056 ft 347 kts 282°
2026-05-05 21:08 30.01356 -95.80220 11693 ft 350 kts 282°
2026-05-05 21:08 30.01962 -95.82944 12376 ft 351 kts 282°
2026-05-05 21:08 30.02567 -95.85681 13067 ft 352 kts 282°
2026-05-05 21:08 30.03170 -95.88419 13730 ft 353 kts 282°
2026-05-05 21:09 30.03779 -95.91209 14323 ft 354 kts 282°
2026-05-05 21:09 30.04379 -95.93973 14909 ft 356 kts 282°
2026-05-05 21:09 30.04979 -95.96744 15466 ft 357 kts 282°
2026-05-05 21:09 30.05584 -95.99535 15791 ft 358 kts 282°
2026-05-05 21:10 30.06187 -96.02317 15864 ft 357 kts 282°
2026-05-05 21:10 30.06791 -96.05100 15860 ft 357 kts 282°
2026-05-05 21:10 30.07365 -96.07882 15847 ft 356 kts 279°
2026-05-05 21:10 30.07847 -96.10684 15834 ft 356 kts 278°
2026-05-05 21:11 30.08271 -96.13516 16270 ft 359 kts 277°
2026-05-05 21:11 30.08677 -96.16363 16862 ft 360 kts 277°
2026-05-05 21:11 30.09088 -96.19227 17443 ft 363 kts 277°
2026-05-05 21:11 30.09511 -96.22101 18014 ft 365 kts 277°
2026-05-05 21:12 30.09947 -96.24993 18527 ft 366 kts 278°
2026-05-05 21:12 30.10394 -96.27895 19059 ft 367 kts 278°
2026-05-05 21:12 30.10844 -96.30799 19608 ft 368 kts 278°
2026-05-05 21:12 30.11143 -96.32725 19968 ft 368 kts 278°
2026-05-05 21:13 30.11594 -96.35636 20500 ft 369 kts 278°
2026-05-05 21:13 30.12044 -96.38554 21027 ft 369 kts 278°
2026-05-05 21:13 30.12496 -96.41475 21535 ft 370 kts 278°
2026-05-05 21:13 30.13024 -96.44390 22035 ft 371 kts 280°
2026-05-05 21:14 30.13634 -96.47335 22527 ft 372 kts 281°
2026-05-05 21:14 30.14274 -96.50237 23002 ft 373 kts 282°
2026-05-05 21:14 30.14926 -96.53145 23413 ft 374 kts 282°
2026-05-05 21:14 30.15573 -96.56060 23779 ft 375 kts 281°
2026-05-05 21:15 30.16212 -96.58989 24144 ft 376 kts 281°
2026-05-05 21:15 30.16842 -96.61932 24501 ft 378 kts 281°
2026-05-05 21:15 30.17464 -96.64880 24874 ft 378 kts 281°
2026-05-05 21:15 30.18083 -96.67840 25234 ft 380 kts 280°
2026-05-05 21:16 30.18704 -96.70810 25588 ft 381 kts 280°
2026-05-05 21:16 30.19326 -96.73790 25936 ft 382 kts 280°
2026-05-05 21:16 30.19951 -96.76777 26276 ft 383 kts 280°
2026-05-05 21:16 30.20581 -96.79776 26605 ft 384 kts 280°
2026-05-05 21:17 30.21212 -96.82780 26934 ft 385 kts 280°
2026-05-05 21:17 30.21844 -96.85796 27252 ft 386 kts 280°
2026-05-05 21:17 30.22475 -96.88821 27561 ft 388 kts 280°
2026-05-05 21:17 30.23105 -96.91852 27850 ft 389 kts 280°
2026-05-05 21:18 30.23736 -96.94897 28113 ft 390 kts 280°
2026-05-05 21:18 30.24368 -96.97944 28376 ft 391 kts 280°
2026-05-05 21:18 30.25007 -97.01014 28642 ft 392 kts 280°
2026-05-05 21:18 30.25646 -97.04082 28877 ft 393 kts 279°
2026-05-05 21:19 30.26286 -97.07153 29152 ft 393 kts 279°
2026-05-05 21:19 30.26926 -97.10219 29505 ft 391 kts 279°
2026-05-05 21:19 30.27558 -97.13269 29846 ft 389 kts 279°
2026-05-05 21:19 30.28192 -97.16345 30153 ft 388 kts 279°
2026-05-05 21:20 30.28815 -97.19374 30420 ft 387 kts 279°
2026-05-05 21:20 30.29439 -97.22395 30695 ft 386 kts 279°
2026-05-05 21:20 30.30061 -97.25408 30960 ft 385 kts 279°
2026-05-05 21:20 30.30680 -97.28420 31216 ft 384 kts 279°
2026-05-05 21:21 30.31298 -97.31427 31498 ft 384 kts 278°
2026-05-05 21:21 30.31913 -97.34427 31727 ft 383 kts 278°
2026-05-05 21:21 30.33137 -97.40418 31803 ft 382 kts 278°
2026-05-05 21:22 30.34357 -97.46402 31806 ft 382 kts 278°
2026-05-05 21:22 30.35575 -97.52386 31809 ft 382 kts 278°
2026-05-05 21:23 30.36788 -97.58367 31809 ft 381 kts 278°
2026-05-05 21:23 30.38001 -97.64346 31809 ft 381 kts 278°
2026-05-05 21:24 30.39208 -97.70325 31811 ft 381 kts 278°
2026-05-05 21:24 30.40407 -97.76300 31839 ft 381 kts 278°
2026-05-05 21:25 30.41605 -97.82277 31849 ft 381 kts 278°
2026-05-05 21:25 30.42805 -97.88255 31858 ft 381 kts 278°
2026-05-05 21:26 30.44006 -97.94231 31860 ft 381 kts 278°
2026-05-05 21:26 30.45196 -98.00203 31860 ft 381 kts 278°
2026-05-05 21:27 30.46385 -98.06183 31862 ft 380 kts 277°
2026-05-05 21:27 30.47581 -98.12193 31850 ft 380 kts 277°
2026-05-05 21:28 30.48766 -98.18167 31813 ft 380 kts 277°
2026-05-05 21:28 30.49949 -98.24136 31821 ft 380 kts 277°
2026-05-05 21:29 30.51126 -98.30108 31822 ft 380 kts 277°
2026-05-05 21:29 30.52299 -98.36083 31824 ft 380 kts 277°
2026-05-05 21:30 30.53470 -98.42056 31827 ft 380 kts 277°
2026-05-05 21:30 30.54636 -98.48031 31823 ft 380 kts 277°
2026-05-05 21:31 30.55803 -98.54000 31811 ft 380 kts 277°
2026-05-05 21:31 30.56964 -98.59978 31797 ft 379 kts 277°
2026-05-05 21:32 30.58120 -98.65958 31798 ft 380 kts 277°
2026-05-05 21:32 30.59276 -98.71934 31797 ft 379 kts 277°
2026-05-05 21:33 30.60423 -98.77910 31795 ft 379 kts 277°
2026-05-05 21:33 30.61573 -98.83881 31786 ft 379 kts 277°
2026-05-05 21:34 30.62722 -98.89853 31775 ft 379 kts 276°
2026-05-05 21:34 30.63873 -98.95831 31764 ft 379 kts 276°
2026-05-05 21:35 30.65020 -99.01810 31757 ft 379 kts 276°
2026-05-05 21:35 30.65973 -99.06818 31739 ft 379 kts 276°
2026-05-05 21:36 30.67298 -99.13805 31737 ft 379 kts 276°
2026-05-05 21:36 30.68430 -99.19789 31735 ft 379 kts 276°
2026-05-05 21:37 30.69558 -99.25765 31733 ft 379 kts 276°
2026-05-05 21:37 30.70689 -99.31734 31730 ft 378 kts 276°
2026-05-05 21:38 30.71814 -99.37707 31726 ft 378 kts 276°
2026-05-05 21:38 30.72933 -99.43684 31722 ft 378 kts 276°
2026-05-05 21:39 30.74043 -99.49657 31732 ft 378 kts 276°
2026-05-05 21:39 30.75156 -99.55632 31741 ft 378 kts 276°
2026-05-05 21:40 30.76269 -99.61599 31747 ft 378 kts 276°
2026-05-05 21:40 30.77379 -99.67564 31749 ft 377 kts 276°
2026-05-05 21:41 30.78483 -99.73534 31746 ft 377 kts 276°
2026-05-05 21:41 30.79582 -99.79494 31742 ft 377 kts 276°
2026-05-05 21:42 30.80674 -99.85448 31736 ft 377 kts 276°
2026-05-05 21:42 30.81768 -99.91412 31728 ft 377 kts 276°
2026-05-05 21:43 30.82858 -99.97374 31724 ft 377 kts 275°
2026-05-05 21:43 30.83943 -100.03336 31726 ft 377 kts 275°
2026-05-05 21:44 30.84853 -100.08333 31729 ft 377 kts 275°
2026-05-05 21:44 30.85935 -100.14294 31740 ft 377 kts 275°
2026-05-05 21:45 30.87012 -100.20251 31740 ft 376 kts 275°
2026-05-05 21:45 30.88092 -100.26216 31742 ft 376 kts 275°
2026-05-05 21:46 30.89165 -100.32176 31743 ft 376 kts 275°
2026-05-05 21:46 30.90235 -100.38143 31748 ft 376 kts 275°
2026-05-05 21:47 30.91304 -100.44110 31752 ft 376 kts 275°
2026-05-05 21:47 30.92372 -100.50075 31754 ft 376 kts 275°
2026-05-05 21:48 30.93442 -100.56045 31758 ft 377 kts 275°
2026-05-05 21:48 30.94505 -100.62023 31762 ft 377 kts 275°
2026-05-05 21:49 30.95558 -100.67997 31766 ft 377 kts 275°
2026-05-05 21:49 30.96618 -100.74013 31766 ft 377 kts 275°
2026-05-05 21:50 30.97672 -100.79987 31768 ft 377 kts 275°
2026-05-05 21:50 30.98724 -100.85967 31764 ft 377 kts 275°
2026-05-05 21:51 30.99768 -100.91951 31765 ft 377 kts 275°
2026-05-05 21:51 31.00813 -100.97932 31776 ft 377 kts 275°
2026-05-05 21:52 31.02374 -101.06909 31786 ft 377 kts 275°
2026-05-05 21:53 31.03410 -101.12897 31787 ft 377 kts 274°
2026-05-05 21:53 31.04442 -101.18890 31784 ft 377 kts 274°
2026-05-05 21:54 31.05474 -101.24882 31778 ft 377 kts 274°
2026-05-05 21:54 31.06509 -101.30880 31773 ft 377 kts 274°
2026-05-05 21:55 31.07535 -101.36881 31760 ft 377 kts 274°
2026-05-05 21:55 31.08561 -101.42889 31761 ft 378 kts 274°
2026-05-05 21:56 31.09588 -101.48902 31762 ft 378 kts 274°
2026-05-05 21:56 31.10611 -101.54917 31760 ft 378 kts 274°
2026-05-05 21:57 31.11637 -101.60973 31765 ft 378 kts 274°
2026-05-05 21:57 31.12651 -101.66997 31759 ft 378 kts 274°
2026-05-05 21:58 31.13669 -101.73033 31761 ft 379 kts 274°
2026-05-05 21:58 31.14679 -101.79064 31761 ft 379 kts 274°
2026-05-05 21:59 31.15689 -101.85108 31764 ft 379 kts 274°
2026-05-05 21:59 31.16709 -101.91151 31760 ft 379 kts 274°
2026-05-05 22:00 31.17719 -101.97198 31759 ft 380 kts 274°
2026-05-05 22:00 31.18724 -102.03253 31762 ft 380 kts 274°
2026-05-05 22:01 31.19719 -102.09319 31757 ft 380 kts 274°
2026-05-05 22:01 31.20713 -102.15383 31760 ft 380 kts 274°
2026-05-05 22:02 31.21706 -102.21434 31759 ft 379 kts 274°
2026-05-05 22:02 31.22695 -102.27477 31759 ft 379 kts 274°
2026-05-05 22:03 31.23684 -102.33521 31756 ft 378 kts 274°
2026-05-05 22:03 31.24664 -102.39556 31754 ft 378 kts 274°
2026-05-05 22:04 31.25640 -102.45583 31755 ft 377 kts 274°
2026-05-05 22:04 31.26613 -102.51597 31762 ft 376 kts 274°
2026-05-05 22:05 31.27585 -102.57601 31761 ft 376 kts 274°
2026-05-05 22:05 31.28553 -102.63605 31748 ft 376 kts 274°
2026-05-05 22:06 31.29510 -102.69609 31759 ft 375 kts 274°
2026-05-05 22:06 31.30469 -102.75649 31747 ft 375 kts 274°
2026-05-05 22:07 31.31424 -102.81640 31760 ft 375 kts 274°
2026-05-05 22:07 31.32380 -102.87630 31757 ft 374 kts 274°
2026-05-05 22:08 31.33326 -102.93614 31760 ft 374 kts 273°
2026-05-05 22:08 31.34271 -102.99592 31760 ft 374 kts 273°
2026-05-05 22:09 31.35212 -103.05571 31759 ft 373 kts 273°
2026-05-05 22:09 31.36149 -103.11545 31772 ft 373 kts 273°
2026-05-05 22:10 31.37084 -103.17517 31797 ft 373 kts 273°
2026-05-05 22:10 31.37550 -103.20502 31924 ft 374 kts 273°
2026-05-05 22:10 31.38013 -103.23492 32241 ft 373 kts 273°
2026-05-05 22:10 31.38473 -103.26467 32569 ft 371 kts 273°
2026-05-05 22:11 31.38933 -103.29429 32887 ft 370 kts 273°
2026-05-05 22:11 31.39394 -103.32387 33192 ft 368 kts 273°
2026-05-05 22:11 31.39854 -103.35327 33527 ft 367 kts 273°
2026-05-05 22:11 31.40310 -103.38261 33838 ft 366 kts 273°
2026-05-05 22:12 31.40760 -103.41183 34124 ft 364 kts 273°
2026-05-05 22:12 31.41206 -103.44096 34387 ft 363 kts 273°
2026-05-05 22:12 31.41653 -103.46996 34649 ft 362 kts 273°
2026-05-05 22:12 31.42098 -103.49888 34906 ft 360 kts 273°
2026-05-05 22:13 31.42539 -103.52773 35157 ft 359 kts 273°
2026-05-05 22:13 31.42978 -103.55645 35394 ft 358 kts 273°
2026-05-05 22:13 31.43416 -103.58512 35621 ft 357 kts 273°
2026-05-05 22:13 31.43849 -103.61371 35816 ft 356 kts 273°
2026-05-05 22:14 31.44282 -103.64223 35876 ft 356 kts 273°
2026-05-05 22:14 31.45159 -103.69976 35862 ft 356 kts 273°
2026-05-05 22:15 31.46022 -103.75691 35835 ft 356 kts 273°
2026-05-05 22:15 31.46888 -103.81417 35808 ft 357 kts 273°
2026-05-05 22:16 31.47753 -103.87154 35790 ft 358 kts 273°
2026-05-05 22:16 31.48615 -103.92902 35765 ft 359 kts 273°
2026-05-05 22:17 31.49475 -103.98670 35763 ft 359 kts 273°
2026-05-05 22:17 31.50336 -104.04448 35768 ft 360 kts 273°
2026-05-05 22:18 31.51196 -104.10233 35765 ft 361 kts 273°
2026-05-05 22:18 31.51912 -104.15049 35764 ft 361 kts 273°
2026-05-05 22:19 31.52770 -104.20855 35777 ft 362 kts 273°
2026-05-05 22:19 31.53627 -104.26667 35776 ft 362 kts 273°
2026-05-05 22:20 31.54489 -104.32524 35778 ft 362 kts 273°
2026-05-05 22:20 31.55344 -104.38345 35778 ft 362 kts 273°
2026-05-05 22:21 31.56195 -104.44174 35779 ft 363 kts 273°
2026-05-05 22:21 31.57040 -104.50002 35775 ft 363 kts 273°
2026-05-05 22:22 31.57882 -104.55840 35778 ft 363 kts 273°
2026-05-05 22:22 31.58725 -104.61686 35785 ft 364 kts 273°
2026-05-05 22:23 31.59566 -104.67534 35801 ft 363 kts 273°
2026-05-05 22:23 31.60408 -104.73382 35808 ft 363 kts 273°
2026-05-05 22:24 31.61243 -104.79223 35813 ft 363 kts 273°
2026-05-05 22:24 31.62073 -104.85059 35822 ft 362 kts 272°
2026-05-05 22:25 31.62900 -104.90882 35821 ft 361 kts 272°
2026-05-05 22:25 31.63722 -104.96686 35806 ft 359 kts 270°
2026-05-05 22:26 31.64535 -105.02445 35790 ft 358 kts 270°
2026-05-05 22:26 31.65344 -105.08219 35787 ft 359 kts 270°
2026-05-05 22:27 31.66150 -105.13996 35792 ft 359 kts 269°
2026-05-05 22:27 31.66965 -105.19782 35794 ft 359 kts 270°
2026-05-05 22:28 31.67783 -105.25606 35798 ft 359 kts 269°
2026-05-05 22:28 31.68579 -105.31398 35799 ft 359 kts 269°
2026-05-05 22:29 31.69377 -105.37192 35799 ft 359 kts 269°
2026-05-05 22:29 31.70177 -105.42977 35804 ft 359 kts 269°
2026-05-05 22:30 31.70969 -105.48764 35802 ft 359 kts 269°
2026-05-05 22:30 31.71759 -105.54547 35803 ft 359 kts 269°
2026-05-05 22:31 31.72548 -105.60332 35797 ft 359 kts 269°
2026-05-05 22:31 31.73335 -105.66111 35796 ft 358 kts 269°
2026-05-05 22:32 31.74110 -105.71888 35792 ft 358 kts 269°
2026-05-05 22:32 31.74889 -105.77665 35785 ft 358 kts 269°
2026-05-05 22:33 31.75669 -105.83437 35785 ft 358 kts 269°
2026-05-05 22:33 31.76442 -105.89207 35782 ft 357 kts 269°
2026-05-05 22:34 31.77211 -105.94971 35783 ft 357 kts 269°
2026-05-05 22:34 31.77980 -106.00730 35811 ft 356 kts 269°
2026-05-05 22:35 31.78738 -106.06486 35848 ft 356 kts 269°
2026-05-05 22:35 31.79498 -106.12243 35879 ft 356 kts 269°
2026-05-05 22:36 31.80259 -106.18025 35916 ft 356 kts 268°
2026-05-05 22:36 31.81012 -106.23769 35948 ft 356 kts 268°
2026-05-05 22:37 31.81746 -106.29514 35965 ft 354 kts 267°
2026-05-05 22:37 31.82129 -106.33860 35965 ft 352 kts 265°
2026-05-05 22:38 31.82505 -106.39584 35964 ft 351 kts 265°
2026-05-05 22:38 31.82891 -106.45310 35963 ft 352 kts 265°
2026-05-05 22:39 31.83306 -106.51042 35944 ft 353 kts 265°
2026-05-05 22:39 31.83734 -106.56794 35957 ft 353 kts 265°
2026-05-05 22:40 31.84164 -106.62542 35988 ft 353 kts 265°
2026-05-05 22:40 31.84588 -106.68296 35972 ft 353 kts 265°
2026-05-05 22:41 31.85006 -106.74046 35974 ft 353 kts 265°
2026-05-05 22:41 31.85419 -106.79797 35975 ft 353 kts 265°
2026-05-05 22:42 31.85833 -106.85549 35945 ft 353 kts 265°
2026-05-05 22:42 31.86246 -106.91302 35908 ft 353 kts 265°
2026-05-05 22:43 31.86656 -106.97052 35872 ft 353 kts 265°
2026-05-05 22:43 31.87059 -107.02802 35838 ft 353 kts 265°
2026-05-05 22:44 31.87464 -107.08546 35808 ft 352 kts 265°
2026-05-05 22:44 31.87870 -107.14327 35780 ft 352 kts 265°
2026-05-05 22:45 31.88272 -107.20076 35785 ft 353 kts 265°
2026-05-05 22:45 31.88667 -107.25836 35793 ft 353 kts 265°
2026-05-05 22:46 31.89060 -107.31594 35796 ft 353 kts 264°
2026-05-05 22:46 31.89450 -107.37358 35797 ft 354 kts 264°
2026-05-05 22:47 31.89845 -107.43128 35798 ft 354 kts 264°
2026-05-05 22:47 31.90230 -107.48902 35799 ft 354 kts 264°
2026-05-05 22:48 31.90611 -107.54687 35799 ft 355 kts 264°
2026-05-05 22:48 31.90737 -107.56605 35800 ft 355 kts 264°